San Diego Classic - Holiday Cup - Inventory for Yuma AZ -150 Mile Race

Station: 150 Miles - T Race

Distance: 150 Miles

Release: 13-Nov-2018 06:20

Weather Release:    Arrival:

Wind at Release:     Wind at Arrival:

Temp at Release: °    Temp at Arrival: °

Lofts: 102

Birds: 342

Clocked: 342

Good Luck to Everyone!
Drops Pos Breeder Pigeon Name Color Sex Ent Arrival Speed To Win Eligible RaceAvg Speed
1 Genesis Syndicate Loft - AZ 0495-AU18-GS BBWF H 1 07:57:39.90 2703.118 00:00:00 Yes
2 Four For More 2 - CA 1824-AU18-C7 BB H 1 07:57:55.40 2695.987 00:00:15 Yes
3 El Dorado Lofts Canada - BC 11621-CU18-CRPU BCWF H 1 07:58:02.60 2692.687 00:00:23 Yes
4 Milestone Loft - CA 1092-AU18-SD 1504/126 BB H 1 07:58:27.90 2681.156 00:00:48 Yes
5 El Dorado Lofts Canada - BC 11618-CU18-CRPU BB H 2 07:58:50.30 2671.028 00:01:10 Yes
6 Sterchi & Bieche - CA 0869-AU18-SR BB H 1 07:58:52.70 2669.948 00:01:13 Yes
7 Manzo Loft - CA 0002-AU18-FVC BB H 1 07:59:47.80 2645.379 00:02:08 Yes
8 Manzo Loft - CA 0001-AU18-FVC BB H 2 08:00:03.40 2638.505 00:02:24 Yes
9 Hawaiian Express - CA 0003-AU18-HE BB H 1 08:00:12.10 2634.687 00:02:32 Yes
10 Humberto Munoz - EM 27148-AU18-MEX BB H 1 08:00:55.40 2615.847 00:03:16 Yes
11 Sam Haslem - UT 1826-AU18-SAM BB H 1 08:02:12.70 2582.875 00:04:33 Yes
12 Four For More 2 - CA 1832-AU18-C7 BBSP H 2 08:02:20.80 2579.468 00:04:41 Yes
13 Tim Brandon - CA 0358-AU18-LAP BB H 1 08:02:35.90 2573.141 00:04:56 Yes
14 B.C. Weaver - FL 29491-AU18-ARPU BLUE CHECK HEN BC H 1 08:02:56.50 2564.559 00:05:17 Yes
15 Dave Shewmaker - CA 8149-AU18-SHEW BB H 1 08:02:56.90 2564.393 00:05:17 Yes
16 Team Omaha - NE 0173-AU18-WARR BB H 1 08:03:00.40 2562.941 00:05:21 Yes
17 Bandido Loft - MN 0052-AU18-JP BC H 1 08:03:20.70 2554.550 00:05:41 Yes
18 Reid Racing Pigeons - CA 3180-AU18-HP BB H 1 08:03:24.10 2553.150 00:05:44 Yes
19 Flying D Loft - TX 0736-AU18-FLYD BB H 1 08:03:29.40 2550.971 00:05:50 Yes
20 Sandstrom Brothers Loft - MN 0399-AU18-GJC BC H 1 08:03:49.50 2542.740 00:06:10 Yes
21 Christian & Adam Gluck - CA 3766-AU18-COM BBWF H 1 08:03:51.20 2542.046 00:06:11 Yes
22 Jalisco - CA 2008-AU18-JALI BBSP H 1 08:03:53.30 2541.190 00:06:13 Yes
23 Rick Barker - CA 0279-AU18-VIP BBPD H 1 08:04:19.80 2530.432 00:06:40 Yes
24 Jalisco - CA 2002-AU18-JALI BBSP H 2 08:04:24.70 2528.453 00:06:45 Yes
25 Humberto Munoz - EM 27147-AU18-MEX BB H 2 08:04:34.50 2524.504 00:06:55 Yes
26 Barry Venn - WY 18242-AU18-VENN BB H 1 08:04:44.40 2520.527 00:07:05 Yes
27 C & D Loft - CA 0970-AU18-PAL BB H 1 08:05:21.80 2505.615 00:07:42 Yes
28 Kolvenbag & Son - PA 1271-IF18-KOLV BC H 1 08:05:37.50 2499.408 00:07:58 Yes
29 Steve Lance - CA 6221-AU18-COM BB H 1 08:05:37.80 2499.290 00:07:58 Yes
30 Reid Racing Pigeons - CA 3183-AU18-HP RC H 2 08:05:44.30 2496.729 00:08:04 Yes
31 Rickyracers - CA 0208-AU18-LAND DC H 1 08:06:00.10 2490.527 00:08:20 Yes
32 Transilvania Loft - NV 0025-AU18-CFL BC H 1 08:06:05.50 2488.414 00:08:26 Yes
33 Duane Gragg - CA 0877-AU18-KEYH BC H 1 08:06:06.60 2487.984 00:08:27 Yes
34 C L & Patty Gage - TX 5005-AU18-TEX BB H 1 08:06:20.40 2482.603 00:08:41 Yes
35 Anthony Cuba - CA 2383-AU18-HP BBWF H 1 08:06:38.00 2475.774 00:08:58 Yes
36 John Karnofel - CA 0885-AU18-KFL Ms Honeybee BB H 1 08:06:57.00 2468.443 00:09:17 Yes
37 Flying D Loft - TX 0713-AU18-FLYD BB H 2 08:07:08.90 2463.874 00:09:29 Yes
38 Christian & Adam Gluck - CA 3774-AU18-COM BB H 2 08:07:20.70 2459.360 00:09:41 Yes
39 Irish Syndicate - AZ 0215-IF18-IS BB H 1 08:07:26.00 2457.338 00:09:46 Yes
40 Reid Racing Pigeons - CA 3182-AU18-HP CHOC H 3 08:07:41.30 2451.519 00:10:01 Yes
41 Team Omaha - NE 0370-AU18-CAR BB H 2 08:07:45.10 2450.078 00:10:05 Yes
42 Team Omaha - NE 0379-AU18-CAR BBSP H 3 08:07:48.30 2448.866 00:10:08 Yes
43 Rickyracers - CA 0225-AU18-LAND BC H 2 08:08:00.30 2444.331 00:10:20 Yes
44 Hi-Cal Connection - CA 0835-AU18-HICA BBPD H 1 08:08:00.60 2444.218 00:10:21 Yes
45 Pairan Racing Loft - OH 0106-AU18-GUYS BB H 1 08:08:01.50 2443.879 00:10:22 Yes
46 Humberto Munoz - EM 27144-MX18-MEX BB H 3 08:08:09.40 2440.904 00:10:29 Yes
47 Jsrl - CA 34618-AU18-JEDD BB H 1 08:08:18.30 2437.561 00:10:38 Yes
48 Los Banditos - CA 0717-AU18-OAKS BB H 1 08:08:18.60 2437.448 00:10:39 Yes
49 Sandstrom Brothers Loft - MN 0386-AU18-GJC BC H 2 08:08:24.20 2435.349 00:10:44 Yes
50 Reid Racing Pigeons - CA 3177-AU18-HP DC H 4 08:08:35.00 2431.312 00:10:55 Yes
51 Bill Dozier & Kincaid Light - TX 0097-AU18-TEX BCWF H 1 08:08:43.10 2428.293 00:11:03 Yes
52 Mesopotamia Loft - MN 6195-AU18-ARPU DC H 1 08:08:43.40 2428.182 00:11:03 Yes
53 Nanez Family Lofts - WI 8475-AU18-NANE BB H 1 08:08:47.40 2426.694 00:11:07 Yes
54 Irma & Gene & Eddie - CA 0516-AU18-VIP BBSP H 1 08:09:03.20 2420.834 00:11:23 Yes
55 Nemelka Racing Pigeon Loft - UT 8116-AU18-NRPL Crazy Train x Super 1106 BB H 1 08:09:09.10 2418.653 00:11:29 Yes
56 Dave Dudley/Ron Moden - CO 18062-AU18-PUEB BB H 1 08:09:10.70 2418.062 00:11:31 Yes
57 Rick Barker - CA 0277-AU18-VIP BB H 2 08:09:17.90 2415.407 00:11:38 Yes
58 Carney & Hassan - CT 0723-AU18-7FL BB H 1 08:09:27.70 2411.803 00:11:48 Yes
59 C P C A Syndicate - AZ 0588-AU18-SLI BBWF H 1 08:09:31.60 2410.372 00:11:52 Yes
60 Mcknight & Mellinger - CA 0795-AU18-JEDD "Jimmy's Queen" BB H 1 08:10:06.90 2397.494 00:12:27 Yes
61 Nemelka Racing Pigeon Loft - UT 8112-AU18-NRPL God of War x Josephine 2 BB C 2 08:10:13.50 2395.101 00:12:34 Yes
62 Nanez Family Lofts - WI 8474-AU18-NANE BB H 2 08:10:14.00 2394.920 00:12:34 Yes
63 Sandstrom Brothers Loft - MN 0958-AU18-SBL BBWF H 3 08:10:14.60 2394.703 00:12:35 Yes
64 C & D Loft - CA 0963-AU18-PAL BB H 2 08:10:15.20 2394.485 00:12:35 Yes
65 Jeff Earthman - NV 0869-AU18-EART BB H 1 08:10:15.70 2394.304 00:12:36 Yes
66 Los Barneros - CA 0719-AU18-SEL BB H 1 08:10:18.30 2393.364 00:12:38 Yes
67 Dave Dudley/Ron Moden - CO 18018-AU18-DEHE BB H 2 08:10:21.50 2392.207 00:12:42 Yes
67 Irish Syndicate - AZ 0231-IF18-IS BB H 2 08:10:21.50 2392.207 00:12:42 Yes
69 Franco's - CA 17856-AU18-JEDD BB H 1 08:10:23.40 2391.521 00:12:44 Yes
70 Barry Venn - WY 18222-AU18-VENN RED H 2 08:10:25.50 2390.763 00:12:46 Yes
71 Tom Cano Family - CA 0848-AU18-SD BB H 1 08:10:27.40 2390.078 00:12:47 Yes
72 Mcknight & Mellinger - CA 1202-AU18-JEDD "Dangerous" BB H 2 08:10:28.60 2389.645 00:12:49 Yes
73 Hi-Cal Connection - CA 0779-AU18-HICA BC H 2 08:10:30.10 2389.104 00:12:50 Yes
74 Tom Cano Family - CA 0808-AU18-SD SIL H 2 08:10:31.90 2388.456 00:12:52 Yes
75 Flying D Loft - TX 0729-AU18-FLYD DC H 3 08:10:33.50 2387.880 00:12:54 Yes
76 Christian & Adam Gluck - CA 3765-AU18-COM BB H 3 08:10:37.20 2386.549 00:12:57 Yes
77 Manzo Loft - CA 0365-AU18-PAL BC H 3 08:10:37.70 2386.369 00:12:58 Yes
78 Bandido Loft - MN 0058-AU18-JP BBSP H 2 08:10:41.30 2385.075 00:13:01 Yes
79 Hi-Cal Connection - CA 0893-AU18-HICA BC H 3 08:10:41.90 2384.860 00:13:02 Yes
80 Y2k Team - CA 0185-AU18-Y2K BB H 1 08:10:45.00 2383.747 00:13:05 Yes
81 Tom Cano Family - CA 0865-AU18-SD BB H 3 08:10:46.20 2383.317 00:13:06 Yes
82 Irma & Gene & Eddie - CA 0510-AU18-VIP BBSP H 2 08:10:48.10 2382.636 00:13:08 Yes
82 Nemelka Racing Pigeon Loft - UT 8100-AU18-NRPL God of War x Weima Hen BC H 3 08:10:48.10 2382.636 00:13:08 Yes
84 Dave Dudley/Ron Moden - CO 18024-AU18-DEHE BB H 3 08:10:50.40 2381.812 00:13:10 Yes
84 Blackball - CA 43058-AU18-APPU BC H 1 08:10:50.40 2381.812 00:13:10 Yes
86 Dutch Touch International - ON 2615-AU18-OL BB H 1 08:10:52.40 2381.096 00:13:12 Yes
86 Team Omaha - NE 0169-AU18-WARR BC H 4 08:10:52.40 2381.096 00:13:12 Yes
88 Irish Syndicate - AZ 0218-IF18-IS DC H 3 08:10:53.80 2380.595 00:13:14 Yes
89 Mcknight & Mellinger - CA 0772-AU18-JEDD "Downtown" BBWF H 3 08:10:57.40 2379.307 00:13:18 Yes
90 Tim Brandon - CA 0361-AU18-LAP BB H 2 08:10:58.00 2379.093 00:13:18 Yes
91 Avitron Loft - CA 1581-AU18-SD BC H 1 08:10:58.60 2378.878 00:13:19 Yes
92 Two-Be-Won - NV 18097-AU18-TBW 13062-11154 BB H 1 08:11:01.20 2377.950 00:13:21 Yes
93 Nemelka Racing Pigeon Loft - UT 8123-AU18-NRPL Double Talk x Turbulence BB C 4 08:11:03.20 2377.236 00:13:23 Yes
94 Lillie & Cecil - CA 1877-AU18-WEBE Fe DC H 1 08:11:05.30 2376.487 00:13:25 Yes
95 Blackball - CA 43060-AU18-APPU BC H 2 08:11:07.70 2375.632 00:13:28 Yes
96 Nemelka Racing Pigeon Loft - UT 8121-AU18-NRPL Goessen PWB x 7044 BC H 5 08:11:09.40 2375.026 00:13:30 Yes
97 Nemelka Racing Pigeon Loft - UT 8106-AU18-NRPL Super 5026 x Sunny Spells BC C 6 08:11:09.70 2374.919 00:13:30 Yes
98 Dave Dudley/Ron Moden - CO 18176-AU18-PUEB BBWF H 4 08:11:10.20 2374.741 00:13:30 Yes
99 Flying D Loft - TX 0733-AU18-FLYD BB H 4 08:11:11.50 2374.279 00:13:32 Yes
100 Carney & Hassan - CT 0910-IF18-CC BC H 2 08:11:12.50 2373.923 00:13:33 Yes

There are 342 bird records

Note: These Race Results are unofficial and subject to change until verified by the Race Committee and declared final.